Tracking 31027 objects as of 19-Jul-2025
HD Live streaming from Space Station
objects crossing your sky now

THORAD AGENA D DEB

Track THORAD AGENA D DEB now!
10-day predictions


NORAD ID: 4857
Int'l Code: 1970-025EM
Perigee: 773.8 km
Apogee: 839.6 km
Inclination: 99.8 °
Period: 100.9 minutes
Semi major axis: 7177 km
RCS: 0.0497 m2 (small)
Launch date: April 8, 1970
Source: United States (US)
Launch site: AIR FORCE WESTERN TEST RANGE (AFWTR)

Note: This is SATELLITE DEBRIS
Your satellite tracking list
FLOCK 3K 7
Track 1 satellite(s)




NASA's NSSDC Master Catalog

Two Line Element Set (TLE):
1 04857U 70025EM  25199.55065099  .00001740  00000-0  71960-3 0  9991
2 04857  99.7653  61.3033 0045843 329.6360  30.2163 14.27671897775314
Source of the keplerian elements: AFSPC